Preview of NWS' New Version of Forecast
This preview is not operational and should not be used for support decisions.

Regional Weather Roundup (RWR)

Issued by Gray - Portland, ME (GYX)

                            
518 
ASUS41 KGYX 262110
RWRGYX
WEATHER ROUNDUP FOR MAINE AND NEW HAMPSHIRE
NATIONAL WEATHER SERVICE GRAY ME
500 PM EDT TUE MAR 26 2019

MEZ002-005-006-010-012-015-018-020-021-024-026-027-029-262200-
MAINE
  
CITY           SKY/WX    TMP DP  RH WIND       PRES   REMARKS
PORTLAND       FAIR      40   4  22 N12       30.22S                  
SANFORD        FAIR      38   4  24 NW13G18   30.23R                  
BAR HARBOR     FAIR      35   1  23 VRB7G16   30.19S                  
WISCASSET      FAIR      38   1  21 NW9       30.22S                  
FRYEBURG       FAIR      37   2  22 W10G21    30.22R                  
LEWISTONAUBURN FAIR      36   3  25 NW14G20   30.21S                  
AUGUSTA        FAIR      36   2  23 NW12G22   30.20S                  
WATERVILLE     FAIR      36   4  26 W16       30.17R                  
BANGOR         FAIR      35  -1  21 W5        30.17F                  
GREENVILLE       N/A     27  -1  30 NW15G28   30.08F WCI  15          
MILLINOCKET    FAIR      32   2  27 W12G22    30.15S                  
HOULTON        FAIR      30   2  30 W13G22    30.08F WCI  20          
PRESQUE ISLE   FAIR      29   2  31 W21       30.09R WCI  16          
FRENCHVILLE    PTSUNNY   26  -1  31 NW22G30   30.06R WCI  12          
CARIBOU        FAIR      28   0  29 W10G17    30.07R WCI  19          
$$

NHZ002-005-008-009-011-012-014-262200-
NEW HAMPSHIRE
  
CITY           SKY/WX    TMP DP  RH WIND       PRES   REMARKS
PORTSMOUTH     SUNNY     41   2  19 NW12G20   30.22R                  
ROCHESTER      FAIR      39   4  23 NW14G21   30.22S                  
NASHUA         FAIR      41  -1  17 N14G24    30.24S                  
MANCHESTER     FAIR      42  -3  15 NW17G24   30.23R                  
CONCORD        FAIR      39   2  21 NW9G23    30.24S                  
LACONIA        FAIR      36   3  25 NW16      30.23S                  
PLYMOUTH       FAIR      36   3  25 W12G22    30.24S                  
BERLIN         FAIR      32   2  27 W9G20     30.19S                  
WHITEFIELD     FAIR      34   0  23 NW9       30.21S                  
JAFFREY        FAIR      37   2  22 NW9G17    30.21S                  
KEENE          FAIR      38   0  20 N17G23    30.26R                  
LEBANON        SUNNY     36   1  23 N13G24    30.26R                  
MT WASHINGTON  SUNNY      3  -8  60 NW56G64     N/A  WCI -28          
$$

VTZ005-007-008-262200-
VERMONT
  
CITY           SKY/WX    TMP DP  RH WIND       PRES   REMARKS
ST JOHNSBURY     N/A     33   5  30 MISG      30.24S                  
MONTPELIER     FAIR      30   2  30 W12G21    30.28F                  
BURLINGTON     FAIR      34   4  28 N9        30.31S                  
$$

MAZ007-012-024-CTZ003-RIZ002-NYZ038-NYZ072-262200-
SOUTHERN NEW ENGLAND AND NY
  
CITY           SKY/WX    TMP DP  RH WIND       PRES   REMARKS
BOSTON         FAIR      40  15  36 E12       30.23S                  
WORCESTER      FAIR      39  -1  18 NW16G30   30.20R                  
NANTUCKET      FAIR      38  13  35 N17       30.22S                  
PROVIDENCE     FAIR      45   3  17 N15       30.21S                  
HARTFORD       FAIR      45  -1  14 N17G24    30.24R                  
ALBANY         FAIR      44   2  17 NW13      30.29S                  
NEW YORK CITY  FAIR      48   1  14 N8        30.25S                  
$$

ANZ081-ANZ082-ANZ150-NHZ014-MEZ023>029-262200-
COASTAL MARINE OBSERVATIONS
  
STATION/POSITION TIME  TEMP    WIND        PRES    WAVE
                       AIR SEA DIR/SP/G            HT/PER
                 (UTC) (F)     (DEG/KT/KT) (MB)    (FT/S)
MOUNT DESERT ROC 2100   33     290/ 16/ 18 1022.3F
MATINICUS ROCK   2000   34     270/  9/ 10 1022.5F
ISLE OF SHOALS   2000   33     110/  8/  9 1023.5F
CASHES LEDGE BUO 2050   36 39              1023.2R   3/ 4
$$

.............KEY..............
   WCI - WIND CHILL
   TC  - TEMPERATURE IN CELSIUS
   VSB - VISIBILITY IN MILES
   HX  - HEAT INDEX
   FAIR- INDICATES FEW OR NO CLOUDS BELOW 12,000 FT, WITH NO 
         SIGNIFICANT WEATHER AND/OR OBSTRUCTIONS TO VISIBILITY.